Starlink 5093

operational
NORAD ID: 56332 Int'l Des: 2023-058 Owner: SPXS Country: US Constellation: starlink
LEOCIRCULARRETROGRADESSO

Über Starlink 5093

Beschreibung wird geladen...

Live-Position

3D-Globus wird geladen...

Nächste Überflüge

Höhenverlauf

Altitude vs Time

uPlot chart will show altitude changes over time

Zweizeiliger Elementsatz

1 56332U 23058R 26036.47105345 .00001533 00000-0 12400-3 0 9995
2 56332 97.6104 38.6228 0003719 30.0357 330.1080 15.01208967153299
Epoch: 5. Feb. 2026 • Age: 6 hours

Aktueller Status

Höhe 586.3 km
Geschwindigkeit 7.56 km/s
Subsatellitenpunkt -53.35°S, 175.57°E
Startdatum 27. Apr. 2023
Alter 2.7 years
Typ internet

Technische Details

Klassifizierung Payload
Masse 300.00 kg
Trockenmasse 260.00 kg
Gesamtmasse 300.00 kg
Länge 0.20 m
Durchmesser 2.80 m
Spannweite 9.00 m
Form Box + pan
Hersteller SPXS
Bus-Typ Starlink
Phasenstatus In Orbit
Besitzer/Staat SPXS/US

Große Konstellationen

Loading constellations...